Regional Weather Roundup
Issued by NWS

Home | Current Version | Previous Version | Text Only | Print | Product List | Glossary Off
Versions: 1 2 3 4 5 6 7 8 9 10 11 12 13 14 15 16 17 18 19 20 21 22 23 24 25 26 27 28 29 30 31 32 33 34 35 36 37 38 39 40 41 42 43 44 45 46 47 48 49 50

000
ASUS45 KPSR 040700
RWRAZ

ARIZONA HOURLY REGIONAL WEATHER ROUNDUP
NATIONAL WEATHER SERVICE PHOENIX AZ
1200 AM MST TUE AUG 04 2015

NOTE: FAIR INDICATES FEW OR NO CLOUDS BELOW 12,000 FEET WITH NO
SIGNIFICANT WEATHER AND/OR OBSTRUCTIONS TO VISIBILITY.

AZZ001>003-036-040800-
NORTHWEST ARIZONA

CITY           SKY/WX    TMP DP  RH WIND       PRES   REMARKS
KINGMAN        CLEAR     79  31  17 S12       29.97S
$$

AZZ004>008-015-016-018-040800-
NORTH CENTRAL ARIZONA

CITY           SKY/WX    TMP DP  RH WIND       PRES   REMARKS
GRAND CANYON   CLEAR     52  40  63 E3        30.26R
WILLIAMS       CLEAR     61  41  48 CALM      30.33S
PRESCOTT       CLEAR     71  43  36 S8        30.13R
FLAGSTAFF      NOT AVBL
PAYSON         CLEAR     72  45  37 CALM      30.15S
$$

AZZ009>014-017-040800-
NORTHEAST ARIZONA

CITY           SKY/WX    TMP DP  RH WIND       PRES   REMARKS
WINSLOW        NOT AVBL
SAINT JOHNS    CLEAR     72  46  39 SW13      30.15S
SHOW LOW       CLEAR     64  43  45 S7        30.24S
$$

AZZ023-040800-
GREATER PHOENIX AREA

CITY           SKY/WX    TMP DP  RH WIND       PRES   REMARKS
PHOENIX        PTCLDY    94  54  25 SW7       29.77R
BUCKEYE        CLEAR     91  45  19 N7        29.79R
LUKE AFB       CLEAR     95  52  23 SW8       29.76S
DEER VALLEY    CLEAR     92  47  21 CALM      29.80R
SCOTTSDALE     CLEAR     93  50  23 N3        29.82S
MESA-GATEWAY   CLEAR     88  50  27 SE5       29.82S
$$

AZZ027-028-040800-
SOUTHWEST MARICOPA COUNTY AND PINAL COUNTY

CITY           SKY/WX    TMP DP  RH WIND       PRES   REMARKS
CASA GRANDE    CLEAR     93  54  26 W7        29.81S
GILA BEND      FAIR      94  51  22 CALM      29.77R
$$

AZZ503-504-507>509-040800-
SOUTHEAST ARIZONA

CITY           SKY/WX    TMP DP  RH WIND       PRES   REMARKS
TUCSON         CLEAR     86  55  34 SW5       29.94R
DAVIS-MONTHAN  CLEAR     84  58  41 SW7       29.93R
NOGALES        CLEAR     72  62  71 CALM      30.06R
SIERRA VISTA   PTCLDY    72  59  63 NW5       30.11R
SAFFORD        CLEAR     82  46  28 W9        29.92S
$$

AZZ020-021-025-026-031-040800-
SOUTHWEST ARIZONA

CITY           SKY/WX    TMP DP  RH WIND       PRES   REMARKS
YUMA           PTCLDY    90  50  25 SE5       29.73S
$$

CAZ031-033-041-043-047-048-061-040800-
SOUTHERN CALIFORNIA

CITY           SKY/WX    TMP DP  RH WIND       PRES   REMARKS
DOWNTOWN L.A.  CLEAR     71  62  73 E3        29.87S
L.A. AIRPORT   PTCLDY    69  64  84 SW6       29.88S
SAN DIEGO      PTCLDY    71  64  78 NW3       29.90S
BURBANK        CLEAR     74  59  59 E5        29.89R
ONTARIO        PTCLDY    72  59  63 CALM      29.90S
RIVERSIDE      CLEAR     74  62  66 CALM      29.90S
PALM SPRINGS   PTCLDY    91  52  26 W3        29.76S
EL CENTRO NAS  CLEAR     89  45  21 W5        29.73R
IMPERIAL       CLEAR     89  50  26 E6        29.71R
BLYTHE         CLEAR     97  38  13 SW12      29.74R
$$

NVZ020-UTZ003-040800-
SOUTHERN NEVADA-UTAH

CITY           SKY/WX    TMP DP  RH WIND       PRES   REMARKS
LAS VEGAS      NOT AVBL
SALT LAKE CITY MOCLDY    64  55  72 SE5       30.07S
$$

NMZ009-TXZ055-040800-
NEW MEXICO-WEST TEXAS

CITY           SKY/WX    TMP DP  RH WIND       PRES   REMARKS
ALBUQUERQUE    PTCLDY    74  49  41 CALM      30.13R
EL PASO        MOCLDY    77  60  55 S5        30.05F
$$


........................KEY........................
SKY/WX - SKY CONDITION/WEATHER
TMP    - TEMPERATURE IN FAHRENHEIT
DP     - DEW POINT IN FAHRENHEIT
RH     - RELATIVE HUMIDITY IN PERCENT
WIND   - DIRECTION AND SPEED IN MILES PER HOUR (MPH)
VRB    - VARIABLE WIND DIRECTION
PRES   - MEAN SEA LEVEL PRESSURE IN INCHES OF MERCURY
         F - FALLING PRESSURE   R - RISING PRESSURE
         S - STEADY PRESSURE
VSB    - VISIBILITY IN MILES
HX     - HEAT INDEX IN FAHRENHEIT
WCI    - WIND CHILL INDEX IN FAHRENHEIT
TC     - TEMPERATURE IN CELSIUS WHICH IS ALSO KNOWN AS
         TEMPERATURE IN CENTIGRADE
AFB    - AIR FORCE BASE
         LUKE AFB IS LUKE AIR FORCE BASE
         DAVIS-MONTHAN IS DAVIS-MONTHAN AIR FORCE BASE
NAS    - NAVAL AIR STATION
         EL CENTRO NAS IS EL CENTRO NAVAL AIR STATION
N/A    - NOT AVAILABLE




USA.gov is the U.S. government's official web portal to all federal, state and local government web resources and services.